Regional Weather Roundup
Issued by NWS

Home | Current Version | Previous Version | Graphics & Text | Print | Product List | Glossary On
Versions: 1 2 3 4 5 6 7 8 9 10 11 12 13 14 15 16 17 18 19 20 21 22 23 24 25 26 27 28 29 30 31 32 33 34 35 36 37 38 39 40 41 42 43 44 45 46 47 48 49 50
541
ASUS43 KMKX 231800
RWRWI

WISCONSIN REGIONAL WEATHER ROUNDUP
NATIONAL WEATHER SERVICE MILWAUKEE/SULLIVAN WI
100 PM CDT SUN JUL 23 2017

NOTE: "FAIR" INDICATES FEW OR NO CLOUDS BELOW 12,000 FEET WITH NO
SIGNIFICANT WEATHER AND/OR OBSTRUCTIONS TO VISIBILITY.

WIZ001-002-006>008-014>016-023>028-231900-
NORTHWEST WISCONSIN

CITY           SKY/WX    TMP DP  RH WIND       PRES   REMARKS
SUPERIOR ARPT  NOT AVBL
ASHLAND        CLOUDY    60  58  92 N12       29.96S FOG
6HR MIN TEMP:  57; 6HR MAX TEMP:  60; 6HR PCP:  0.03;

HAYWARD        CLOUDY    61  57  87 N13       29.96R
6HR MIN TEMP:  57; 6HR MAX TEMP:  64;

SIREN          CLOUDY    65  56  73 N6        29.96S
CUMBERLAND     CLOUDY    63  54  72 N8        29.95S
RICE LAKE      CLOUDY    64  57  78 NW6       29.95R
6HR MIN TEMP:  62; 6HR MAX TEMP:  67;

CHETEK         CLOUDY    65  59  79 N10       29.93R
LADYSMITH      CLOUDY    67  58  74 NW6       29.93S
EAU CLAIRE     NOT AVBL
MENOMONIE      CLOUDY    73  59  63 NW8       29.90S
NEW RICHMOND   MOSUNNY   72  57  60 N16       29.94R
OSCEOLA        PTSUNNY   72  59  64 N9        29.96S
$$

WIZ003>005-009-010-017-018-231900-
NORTH CENTRAL WISCONSIN

CITY           SKY/WX    TMP DP  RH WIND       PRES   REMARKS
MANITOWISH WTR CLOUDY    59  59 100 N6        29.92R
ARBOR VITAE    CLOUDY    63  59  87 N7        29.91R
WOODRUFF       CLOUDY    63  59  87 N7        29.91R
RHINELANDER    CLOUDY    68  61  78 VRB7      29.90R
6HR MIN TEMP:  63; 6HR MAX TEMP:  68;

EAGLE RIVER    CLOUDY    64  60  88 N10G16    29.90R
LAND O LAKES   CLOUDY    62  58  86 N8        29.92R
PHILLIPS       CLOUDY    64  60  87 N9        29.91R
6HR MIN TEMP:  58; 6HR MAX TEMP:  64;

TOMAHAWK         N/A     71  60  68 N6        29.89R
MEDFORD        SUNNY     70  60  69 NW13      29.88R
MERRILL        MOSUNNY   75  61  61 N10       29.86S
6HR MIN TEMP:  61; 6HR MAX TEMP:  76;

$$

WIZ029-030-035-036-043>047-231900-
CENTRAL WISCONSIN

CITY           SKY/WX    TMP DP  RH WIND       PRES   REMARKS
WAUSAU         PTSUNNY   75  57  53 NW13      29.83S
6HR MIN TEMP:  66; 6HR MAX TEMP:  78;

MOSINEE        PTSUNNY   79  61  53 N12       29.85S HX  80
MARSHFIELD     MOSUNNY   77  57  50 NW10      29.85S
6HR MIN TEMP:  65; 6HR MAX TEMP:  79; 6HR PCP: TRACE;

STEVENS POINT  MOSUNNY   78  56  46 NW10G16   29.83S
WAUPACA        SUNNY     84  57  38 NW9       29.81S HX  83
WAUTOMA        SUNNY     81  60  48 NW9G18    29.82S HX  82
6HR MIN TEMP:  68; 6HR MAX TEMP:  81;

WISC RAPIDS    MOSUNNY   83  59  44 NW16G24   29.85S HX  83
6HR MIN TEMP:  64; 6HR MAX TEMP:  83; 6HR PCP:  0.01;

CAMP DOUGLAS   NOT AVBL
$$

WIZ011>013-019>022-031-037>040-048>050-231900-
NORTHEAST WISCONSIN

CITY           SKY/WX    TMP DP  RH WIND       PRES   REMARKS
ANTIGO         PTSUNNY   74  59  60 N9        29.85S
SHAWANO        PTSUNNY   79  63  57 CALM      29.80S HX  80
OCONTO         MOSUNNY   78  65  63 N9        29.79S HX  80
STURGEON BAY     N/A     72  66  81 N7        29.80F
6HR MIN TEMP:  66; 6HR MAX TEMP:  73;

GREEN BAY      PTSUNNY   76  69  79 N5        29.79F
6HR MIN TEMP:  68; 6HR MAX TEMP:  80; 6HR PCP: TRACE;

MANITOWOC      NOT AVBL
APPLETON       PTSUNNY   75  57  53 W7        29.80S
CLINTONVILLE   MOSUNNY   81  57  44 NW10      29.80S HX  81
OSHKOSH        CLOUDY    82  64  54 W10       29.80F HX  83
6HR MIN TEMP:  69; 6HR MAX TEMP:  82; 6HR PCP: TRACE;

$$

WIZ032>034-041-042-053>061-231900-
SOUTHWEST WISCONSIN

CITY           SKY/WX    TMP DP  RH WIND       PRES   REMARKS
LA CROSSE      SUNNY     82  64  54 NW13      29.85S HX  83
6HR MIN TEMP:  69; 6HR MAX TEMP:  82;

SPARTA         PTSUNNY   78  59  52 NW14      29.86S
VIROQUA        MOSUNNY   77  63  61 NW12      29.87S
BOSCOBEL       PTSUNNY   84  62  47 N8        29.83S HX  85
6HR MIN TEMP:  67; 6HR MAX TEMP:  85;

PRAIRIE DU CHI SUNNY     82  59  45 N12G21    29.83R HX  82
PLATTEVILLE    PTSUNNY   83  75  76 NW8       29.83F HX  90
$$

WIZ056-057-062-063-064-067-068-231900-
SOUTH CENTRAL WISCONSIN

CITY           SKY/WX    TMP DP  RH WIND       PRES   REMARKS
REEDSBURG      PTSUNNY   79  61  54 NW5       29.83F HX  80
BARABOO/DELLS  CLOUDY    81  56  41 NW5       29.84S HX  81
LONE ROCK      PTSUNNY   82  63  52 N6        29.82S HX  83
6HR MIN TEMP:  66; 6HR MAX TEMP:  83; 6HR PCP: TRACE;

MINERAL POINT  MOSUNNY   84  70  61 SW12G17   29.82F HX  88
MADISON        MOSUNNY   81  65  58 NW8       29.81F HX  83
6HR MIN TEMP:  71; 6HR MAX TEMP:  81; 6HR PCP: TRACE;

MIDDLETON      MOSUNNY   82  66  59 NW3       29.83F HX  84
WATERTOWN      CLOUDY    78  66  67 N7        29.82R HX  80
MONROE         SUNNY     82  68  61 W13       29.82F HX  85
JANESVILLE     PTSUNNY   82  70  65 W12G17    29.80F HX  86
$$

WIZ051-052-058>065-066-070>072-231900-
SOUTHEAST WISCONSIN

CITY           SKY/WX    TMP DP  RH WIND       PRES   REMARKS
MILWAUKEE      CLOUDY    85  64  49 W7        29.78F HX  86
6HR MIN TEMP:  72; 6HR MAX TEMP:  86;

WAUKESHA       MOSUNNY   79  63  57 NW9       29.81F HX  80
MILWAUKEE/TIMM PTSUNNY   81  63  54 NW7       29.80F HX  82
RACINE         CLOUDY    85  66  53 W8        29.80F HX  87
6HR MIN TEMP:  71; 6HR MAX TEMP:  86;

KENOSHA        SUNNY     87  61  41 NW10      29.79F HX  87
6HR MIN TEMP:  71; 6HR MAX TEMP:  87;

FOND DU LAC    PTSUNNY   79  58  48 NW10      29.81F HX  80
6HR MIN TEMP:  71; 6HR MAX TEMP:  82;

SHEBOYGAN      CLOUDY    77  67  71 NW9       29.80S
6HR MIN TEMP:  68; 6HR MAX TEMP:  78;

WEST BEND      CLOUDY    79  64  61 NW9       29.80F HX  81
JUNEAU         CLOUDY    76  61  59 CALM      29.84R
$$

LSZ147-162-231900-
LAKE SUPERIOR

STATION/POSITION TIME  TEMP    WIND        PRES    WAVE
                       AIR SEA DIR/SP/G            HT/PER
                 (UTC) (F)     (DEG/KT/KT) (MB)    (FT/S)
W MID LAKE BUOY  1650   51 48   20/ 10/ 12 1013.9R   2/ 4
DEVILS ISLAND    1700   57      30/ 15/ 17 1014.6R
PORT WING        1640   57     310/  2/  3 1014.6R
SAXON HARBOR     1730   58     360/  6/  8 1013.9R
$$

LMZ867-665-643>646-231900-
LAKE MICHIGAN

STATION/POSITION TIME  TEMP    WIND        PRES    WAVE
                       AIR SEA DIR/SP/G            HT/PER
                 (UTC) (F)     (DEG/KT/KT) (MB)    (FT/S)
CHAMBERS ISLAND  1740   72      10/  7/  8 1008.5S
S GREEN BAY BUOY 1730   72 75  190/  4/  6 1008.9R
N MID LAKE BUOY  1650   68 68  320/  8/ 10 1008.6R   1/ 2
NORTHPORT PIER   1740   69     340/ 12/ 15 1009.1S
KEWAUNEE LAKESHO 1730   75      80/  3/  4 1008.5R
SHEBOYGAN LAKESH 1700   77     280/  8/ 10 1008.3R
PORT WASHINGTON  1740   82     310/  6/ 11 1009.5S
ATWATER BUOY     1609   77 69  330/  8/ 10 1009.2R
MILWAUKEE LAKESH 1730   81     300/  7/  9   N/A
S MID LAKE BUOY  1650   72 71  270/  8/ 10 1008.7F   0
KENOSHA   LAKESH 1700   84     310/ 10/ 12 1008.5
$$

TC  - TEMPERATURE IN CELSIUS
VSB - VISIBILITY IN STATUTE MILES
WCI - WIND CHILL INDEX
HX  - HEAT INDEX





USA.gov is the U.S. government's official web portal to all federal, state and local government web resources and services.